SKW3402 KFAT-KSAN

Flight info

Callsign SKW3402
Flight time 0h 51m
Altitude 35000
Route BULL3 NTELL FRAME EHF HUULK COMIX2
Aircraft E75L/M-SDE3GILORVW/S

Departure

Time 2026-05-08 14:49
Airport Fresno Yosemite International Airport (KFAT)

Arrival

Time 2026-05-08 15:40
Airport San Diego International Airport (KSAN)
Time Latitude Longitude Altitude Speed Heading
2026-05-08 14:46 36.76971 -119.71104 331 ft 0 kts 63°
2026-05-08 14:47 36.76972 -119.71102 331 ft 2 kts 62°
2026-05-08 14:47 36.76991 -119.71077 330 ft 6 kts 34°
2026-05-08 14:47 36.77048 -119.71059 331 ft 11 kts 344°
2026-05-08 14:48 36.77074 -119.71084 329 ft 5 kts 308°
2026-05-08 14:48 36.77210 -119.71319 331 ft 69 kts 306°
2026-05-08 14:48 36.77631 -119.72054 332 ft 137 kts 306°
2026-05-08 14:48 36.78237 -119.73104 914 ft 151 kts 306°
2026-05-08 14:49 36.78799 -119.74134 1223 ft 144 kts 305°
2026-05-08 14:49 36.79370 -119.75208 956 ft 168 kts 305°
2026-05-08 14:49 36.80049 -119.76431 988 ft 177 kts 305°
2026-05-08 14:49 36.80770 -119.77695 1882 ft 178 kts 306°
2026-05-08 14:50 36.81545 -119.79043 2618 ft 201 kts 306°
2026-05-08 14:50 36.82300 -119.80563 3409 ft 220 kts 288°
2026-05-08 14:50 36.82318 -119.82532 4219 ft 241 kts 253°
2026-05-08 14:50 36.81356 -119.84306 5091 ft 258 kts 220°
2026-05-08 14:51 36.79680 -119.85235 5941 ft 274 kts 191°
2026-05-08 14:51 36.77757 -119.84975 6871 ft 284 kts 159°
2026-05-08 14:51 36.76121 -119.83574 7809 ft 291 kts 131°
2026-05-08 14:51 36.75108 -119.81394 8787 ft 294 kts 114°
2026-05-08 14:52 36.74171 -119.79112 9618 ft 298 kts 124°
2026-05-08 14:52 36.71295 -119.75210 10745 ft 321 kts 140°
2026-05-08 14:52 36.69530 -119.73438 11361 ft 328 kts 143°
2026-05-08 14:53 36.67608 -119.71879 12110 ft 331 kts 150°
2026-05-08 14:53 36.65601 -119.70423 12879 ft 335 kts 151°
2026-05-08 14:53 36.63563 -119.68975 13709 ft 339 kts 152°
2026-05-08 14:53 36.61482 -119.67570 14496 ft 342 kts 155°
2026-05-08 14:54 36.59298 -119.66360 15269 ft 346 kts 158°
2026-05-08 14:54 36.57104 -119.65203 16025 ft 349 kts 158°
2026-05-08 14:54 36.54847 -119.64029 16754 ft 353 kts 158°
2026-05-08 14:54 36.52563 -119.62846 17455 ft 357 kts 159°
2026-05-08 14:55 36.50259 -119.61656 18177 ft 360 kts 158°
2026-05-08 14:55 36.47932 -119.60453 18839 ft 363 kts 159°
2026-05-08 14:55 36.45586 -119.59238 19453 ft 366 kts 159°
2026-05-08 14:55 36.44024 -119.58433 19887 ft 368 kts 159°
2026-05-08 14:56 36.41649 -119.57206 20570 ft 371 kts 159°
2026-05-08 14:56 36.39251 -119.55969 21228 ft 375 kts 159°
2026-05-08 14:56 36.36834 -119.54724 21886 ft 378 kts 159°
2026-05-08 14:56 36.34389 -119.53466 22475 ft 383 kts 159°
2026-05-08 14:57 36.31108 -119.51774 23288 ft 388 kts 159°
2026-05-08 14:57 36.28598 -119.50483 23850 ft 392 kts 159°
2026-05-08 14:57 36.26894 -119.49608 24192 ft 394 kts 159°
2026-05-08 14:57 36.24349 -119.48301 24701 ft 397 kts 159°
2026-05-08 14:58 36.21782 -119.46983 25216 ft 401 kts 159°
2026-05-08 14:58 36.19197 -119.45657 25718 ft 404 kts 159°
2026-05-08 14:58 36.16623 -119.44339 26209 ft 407 kts 159°
2026-05-08 14:58 36.13997 -119.42992 26700 ft 410 kts 159°
2026-05-08 14:59 36.11346 -119.41635 27184 ft 413 kts 159°
2026-05-08 14:59 36.05983 -119.38893 28116 ft 420 kts 159°
2026-05-08 14:59 36.03272 -119.37508 28558 ft 423 kts 159°
2026-05-08 15:00 36.00540 -119.36114 28986 ft 426 kts 159°
2026-05-08 15:00 35.97790 -119.34712 29408 ft 428 kts 159°
2026-05-08 15:00 35.95025 -119.33302 29826 ft 431 kts 159°
2026-05-08 15:00 35.92219 -119.31874 29953 ft 440 kts 159°
2026-05-08 15:01 35.89382 -119.30430 30394 ft 441 kts 159°
2026-05-08 15:01 35.86581 -119.29006 30836 ft 440 kts 158°
2026-05-08 15:01 35.83749 -119.27567 31291 ft 440 kts 158°
2026-05-08 15:01 35.80919 -119.26131 31723 ft 440 kts 158°
2026-05-08 15:02 35.78090 -119.24696 32163 ft 439 kts 158°
2026-05-08 15:02 35.75268 -119.23265 32613 ft 438 kts 158°
2026-05-08 15:02 35.72447 -119.21836 33030 ft 437 kts 158°
2026-05-08 15:02 35.69639 -119.20416 33439 ft 436 kts 158°
2026-05-08 15:03 35.66831 -119.18996 33838 ft 436 kts 158°
2026-05-08 15:03 35.64026 -119.17578 34206 ft 435 kts 158°
2026-05-08 15:03 35.61227 -119.16164 34526 ft 435 kts 158°
2026-05-08 15:03 35.58467 -119.14773 34858 ft 434 kts 158°
2026-05-08 15:04 35.55717 -119.13385 34982 ft 418 kts 158°
2026-05-08 15:04 35.53064 -119.12049 35027 ft 412 kts 158°
2026-05-08 15:04 35.47655 -119.09270 35096 ft 430 kts 156°
2026-05-08 15:05 35.42090 -119.06175 35123 ft 448 kts 156°
2026-05-08 15:05 35.36326 -119.02955 35123 ft 462 kts 156°
2026-05-08 15:06 35.30485 -118.99697 35094 ft 460 kts 156°
2026-05-08 15:06 35.24695 -118.96475 35094 ft 460 kts 156°
2026-05-08 15:07 35.18869 -118.93237 35081 ft 460 kts 156°
2026-05-08 15:07 35.13046 -118.90007 35084 ft 461 kts 156°
2026-05-08 15:08 35.07211 -118.86776 35072 ft 459 kts 156°
2026-05-08 15:08 35.01377 -118.83549 35068 ft 460 kts 156°
2026-05-08 15:09 34.95532 -118.80323 35080 ft 459 kts 156°
2026-05-08 15:09 34.89721 -118.77120 35059 ft 460 kts 156°
2026-05-08 15:10 34.84291 -118.74125 35056 ft 461 kts 156°
2026-05-08 15:10 34.78445 -118.70914 35051 ft 461 kts 156°
2026-05-08 15:11 34.72624 -118.67722 35049 ft 462 kts 156°
2026-05-08 15:11 34.66760 -118.64510 35038 ft 460 kts 156°
2026-05-08 15:12 34.60926 -118.61299 35032 ft 459 kts 155°
2026-05-08 15:12 34.55295 -118.57590 35040 ft 461 kts 150°
2026-05-08 15:13 34.49791 -118.53677 35035 ft 463 kts 150°
2026-05-08 15:13 34.44267 -118.49739 35079 ft 459 kts 150°
2026-05-08 15:14 34.38752 -118.45815 35106 ft 457 kts 150°
2026-05-08 15:14 34.33263 -118.41915 35106 ft 457 kts 150°
2026-05-08 15:15 34.27780 -118.38025 35117 ft 457 kts 150°
2026-05-08 15:15 34.22305 -118.34147 35087 ft 461 kts 150°
2026-05-08 15:16 34.16761 -118.30227 35096 ft 459 kts 150°
2026-05-08 15:16 34.11242 -118.26330 35089 ft 462 kts 150°
2026-05-08 15:17 34.05714 -118.22431 35083 ft 459 kts 150°
2026-05-08 15:17 34.00193 -118.18546 35089 ft 457 kts 150°
2026-05-08 15:18 33.94694 -118.14681 35087 ft 457 kts 150°
2026-05-08 15:18 33.89201 -118.10825 35087 ft 457 kts 150°
2026-05-08 15:19 33.83691 -118.07006 34884 ft 457 kts 151°
2026-05-08 15:19 33.80956 -118.05181 34587 ft 449 kts 151°
2026-05-08 15:19 33.78262 -118.03398 34282 ft 436 kts 151°
2026-05-08 15:20 33.75637 -118.01661 33968 ft 425 kts 151°
2026-05-08 15:20 33.73044 -117.99947 33689 ft 430 kts 151°
2026-05-08 15:20 33.70399 -117.98199 33379 ft 435 kts 151°
2026-05-08 15:20 33.67736 -117.96440 33077 ft 436 kts 151°
2026-05-08 15:21 33.65075 -117.94683 32725 ft 437 kts 151°
2026-05-08 15:21 33.62412 -117.92927 32302 ft 436 kts 151°
2026-05-08 15:21 33.59744 -117.91168 31867 ft 437 kts 151°
2026-05-08 15:21 33.57063 -117.89437 31429 ft 438 kts 152°
2026-05-08 15:22 33.54439 -117.87662 31004 ft 439 kts 150°
2026-05-08 15:22 33.51771 -117.85851 30577 ft 441 kts 150°
2026-05-08 15:22 33.49105 -117.84033 30158 ft 442 kts 150°
2026-05-08 15:22 33.46451 -117.82163 29669 ft 442 kts 147°
2026-05-08 15:23 33.43885 -117.80116 29183 ft 441 kts 144°
2026-05-08 15:23 33.41517 -117.77801 28613 ft 437 kts 138°
2026-05-08 15:23 33.39245 -117.75419 27983 ft 432 kts 138°
2026-05-08 15:23 33.37007 -117.73034 27368 ft 428 kts 137°
2026-05-08 15:24 33.34789 -117.70666 26765 ft 425 kts 137°
2026-05-08 15:24 33.32625 -117.68354 26152 ft 421 kts 137°
2026-05-08 15:24 33.30449 -117.66032 25529 ft 417 kts 137°
2026-05-08 15:24 33.28293 -117.63731 24923 ft 413 kts 137°
2026-05-08 15:25 33.26162 -117.61443 24322 ft 410 kts 138°
2026-05-08 15:25 33.24032 -117.59205 23702 ft 406 kts 137°
2026-05-08 15:25 33.21919 -117.56978 22940 ft 402 kts 137°
2026-05-08 15:25 33.19837 -117.54785 22170 ft 397 kts 137°
2026-05-08 15:26 33.17776 -117.52618 21417 ft 392 kts 137°
2026-05-08 15:26 33.15763 -117.50494 20657 ft 375 kts 137°
2026-05-08 15:26 33.13846 -117.48537 19902 ft 352 kts 142°
2026-05-08 15:26 33.11907 -117.46862 19154 ft 339 kts 143°
2026-05-08 15:27 33.09997 -117.45248 18432 ft 332 kts 143°
2026-05-08 15:27 33.08161 -117.43730 17617 ft 319 kts 144°
2026-05-08 15:27 33.06365 -117.42241 16801 ft 310 kts 143°
2026-05-08 15:27 33.04627 -117.40780 16020 ft 301 kts 143°
2026-05-08 15:28 33.02931 -117.39355 15266 ft 295 kts 143°
2026-05-08 15:28 33.01278 -117.37967 14536 ft 291 kts 143°
2026-05-08 15:28 32.99618 -117.36575 13813 ft 289 kts 143°
2026-05-08 15:28 32.97973 -117.35194 13036 ft 291 kts 143°
2026-05-08 15:29 32.96324 -117.33813 12277 ft 289 kts 144°
2026-05-08 15:29 32.94686 -117.32438 11535 ft 287 kts 143°
2026-05-08 15:29 32.93081 -117.31089 10822 ft 286 kts 144°
2026-05-08 15:29 32.91460 -117.29741 10094 ft 281 kts 145°
2026-05-08 15:30 32.89869 -117.28420 9318 ft 277 kts 145°
2026-05-08 15:30 32.88305 -117.27121 8541 ft 272 kts 145°
2026-05-08 15:30 32.86761 -117.25838 7875 ft 269 kts 145°
2026-05-08 15:30 32.85222 -117.24559 7360 ft 272 kts 145°
2026-05-08 15:31 32.83677 -117.23262 7127 ft 270 kts 142°
2026-05-08 15:31 32.82527 -117.21514 7024 ft 269 kts 111°
2026-05-08 15:31 32.81943 -117.19428 6865 ft 264 kts 104°
2026-05-08 15:31 32.81473 -117.17348 6532 ft 256 kts 103°
2026-05-08 15:32 32.81031 -117.15312 6213 ft 254 kts 102°
2026-05-08 15:32 32.80595 -117.13317 6088 ft 243 kts 103°
2026-05-08 15:32 32.80072 -117.11407 6050 ft 245 kts 108°
2026-05-08 15:32 32.79473 -117.09485 5928 ft 251 kts 109°
2026-05-08 15:33 32.78852 -117.07548 5605 ft 250 kts 109°
2026-05-08 15:33 32.78236 -117.05634 5273 ft 246 kts 109°
2026-05-08 15:33 32.77637 -117.03768 4960 ft 243 kts 109°
2026-05-08 15:33 32.77039 -117.01898 4607 ft 240 kts 109°
2026-05-08 15:34 32.76452 -117.00061 4260 ft 235 kts 110°
2026-05-08 15:34 32.75875 -116.98295 4083 ft 223 kts 112°
2026-05-08 15:34 32.75058 -116.96741 3994 ft 225 kts 133°
2026-05-08 15:34 32.73792 -116.95665 3818 ft 225 kts 155°
2026-05-08 15:35 32.72299 -116.95376 3647 ft 220 kts 185°
2026-05-08 15:35 32.70846 -116.95858 3463 ft 217 kts 209°
2026-05-08 15:35 32.69666 -116.96944 3296 ft 212 kts 231°
2026-05-08 15:35 32.68962 -116.98413 3135 ft 201 kts 253°
2026-05-08 15:36 32.68899 -116.99998 3035 ft 188 kts 277°
2026-05-08 15:36 32.69027 -117.01004 3001 ft 185 kts 283°
2026-05-08 15:36 32.69445 -117.02994 2879 ft 188 kts 284°
2026-05-08 15:36 32.69818 -117.04496 2690 ft 190 kts 288°
2026-05-08 15:37 32.70212 -117.05995 2420 ft 189 kts 287°
2026-05-08 15:37 32.70550 -117.07470 2145 ft 179 kts 284°
2026-05-08 15:37 32.70885 -117.08844 1876 ft 170 kts 287°
2026-05-08 15:37 32.71216 -117.10134 1593 ft 156 kts 287°
2026-05-08 15:38 32.71514 -117.11333 1303 ft 147 kts 286°
2026-05-08 15:38 32.71790 -117.12488 1034 ft 143 kts 285°
2026-05-08 15:38 32.72031 -117.13629 782 ft 143 kts 283°
2026-05-08 15:38 32.72300 -117.14745 583 ft 138 kts 287°
2026-05-08 15:39 32.72577 -117.15822 399 ft 135 kts 287°
2026-05-08 15:39 32.72843 -117.16883 215 ft 133 kts 285°
2026-05-08 15:39 32.73099 -117.17928 55 ft 128 kts 286°
2026-05-08 15:39 32.73333 -117.18875 23 ft 108 kts 285°
2026-05-08 15:40 32.73497 -117.19550 26 ft 51 kts 286°
2026-05-08 15:40 32.73526 -117.19782 27 ft 17 kts 253°
2026-05-08 15:40 32.73506 -117.19832 29 ft 2 kts 234°
2026-05-08 15:40 32.73502 -117.19836 30 ft 1 kts 218°
2026-05-08 15:41 32.73490 -117.19840 27 ft 3 kts 180°
2026-05-08 15:41 32.73468 -117.19820 25 ft 7 kts 128°
2026-05-08 15:41 32.73445 -117.19745 24 ft 12 kts 111°
2026-05-08 15:41 32.73393 -117.19693 23 ft 11 kts 161°
2026-05-08 15:42 32.73356 -117.19704 22 ft 9 kts 208°
2026-05-08 15:42 32.73309 -117.19728 21 ft 5 kts 181°
2026-05-08 15:42 32.73277 -117.19704 22 ft 0 kts 133°
2026-05-08 15:42 32.73275 -117.19702 22 ft 0 kts 134°